FW3705 Weather Reports


time (UTC)temp
C
wind
direction
speed
KPH
gust
KPH
rain 1hr
cm
rain 24hr
cm
rain mn
cm
humidity
%
barometer
mb
20260508004511 13 276 0.0 0.0 0.00 0.00 0.00 26 1010.9
20260508003013 13 276 0.0 0.0 0.00 0.00 0.00 25 1010.7
20260508001512 13 276 0.0 3.2 0.00 0.00 0.00 23 1010.4
20260508000010 14 276 0.0 6.4 0.00 0.00 0.00 22 1010.4
20260507234514 15 275 0.0 6.4 0.00 0.00 0.00 22 1010.3
20260507233020 15 275 0.0 6.4 0.00 0.00 0.00 21 1010.2
20260507231508 15 277 0.0 11.3 0.00 0.00 0.00 20 1010.0
20260507230007 15 249 0.0 4.8 0.00 0.00 0.00 20 1009.9
20260507224508 16 281 0.0 8.0 0.00 0.00 0.00 19 1009.8
20260507223006 16 244 0.0 8.0 0.00 0.00 0.00 19 1009.6
20260507221510 16 67 0.0 8.0 0.00 0.00 0.00 18 1009.4
20260507220005 16 278 0.0 4.8 0.00 0.00 0.00 19 1009.3
20260507214505 17 267 0.0 6.4 0.00 0.00 0.00 20 1009.2
20260507213007 17 283 1.6 11.3 0.00 0.00 0.00 20 1009.0
20260507211504 17 292 1.6 12.9 0.00 0.00 0.00 19 1009.1
20260507210004 17 289 1.6 11.3 0.00 0.00 0.00 19 1008.9
20260507204501 17 292 4.8 14.5 0.00 0.00 0.00 18 1009.0
20260507203001 17 257 4.8 14.5 0.00 0.00 0.00 17 1009.0
20260507201617 17 290 1.6 16.1 0.00 0.00 0.00 17 1009.0
20260507200110 17 269 3.2 11.3 0.00 0.00 0.00 17 1009.1
20260507194558 18 290 3.2 12.9 0.00 0.00 0.00 16 1009.3
20260507193059 18 277 1.6 11.3 0.00 0.00 0.00 18 1009.4
20260507191600 18 294 0.0 12.9 0.00 0.00 0.00 18 1009.5
20260507190103 18 239 1.6 12.9 0.00 0.00 0.00 20 1009.5
20260507184559 18 247 0.0 16.1 0.00 0.00 0.00 20 1009.7
20260507183052 18 284 1.6 11.3 0.00 0.00 0.00 19 1009.9
20260507181549 18 225 0.0 9.7 0.00 0.00 0.00 24 1009.9
20260507180051 17 261 0.0 14.5 0.00 0.00 0.00 23 1010.1
20260507174550 18 288 0.0 12.9 0.00 0.00 0.00 27 1010.0
20260507173046 18 228 0.0 8.0 0.00 0.00 0.00 31 1009.9
20260507171545 17 206 1.6 12.9 0.00 0.00 0.00 32 1010.0
20260507170044 17 288 0.0 9.7 0.00 0.00 0.00 34 1010.2
20260507164556 17 277 0.0 3.2 0.00 0.00 0.00 37 1010.2
20260507163043 17 246 0.0 4.8 0.00 0.00 0.00 35 1010.5
20260507161540 17 225 0.0 3.2 0.00 0.00 0.00 38 1010.6
20260507160039 16 267 3.2 14.5 0.00 0.00 0.00 37 1010.8
20260507154540 16 222 3.2 11.3 0.00 0.00 0.00 37 1010.9
20260507153034 16 199 0.0 8.0 0.00 0.00 0.00 38 1010.9
20260507151533 16 248 3.2 8.0 0.00 0.00 0.00 36 1011.0
20260507150030 16 250 0.0 8.0 0.00 0.00 0.00 38 1011.2
20260507144531 15 62 0.0 11.3 0.00 0.00 0.00 40 1011.4
20260507143031 15 275 0.0 4.8 0.00 0.00 0.00 40 1011.5
20260507141524 14 273 0.0 0.0 0.00 0.00 0.00 44 1011.5
20260507140027 13 273 0.0 4.8 0.00 0.00 0.00 47 1011.4
20260507134527 13 271 0.0 3.2 0.00 0.00 0.00 49 1011.4
20260507133024 12 266 0.0 3.2 0.00 0.00 0.00 51 1011.7
20260507131523 12 309 0.0 3.2 0.00 0.00 0.00 53 1011.8
20260507130018 11 292 0.0 6.4 0.00 0.00 0.00 57 1012.1
20260507124524 11 294 0.0 4.8 0.00 0.00 0.00 61 1012.0
20260507123015 10 298 0.0 1.6 0.00 0.00 0.00 65 1011.8
20260507121515 9 298 0.0 0.0 0.00 0.00 0.00 69 1011.8
20260507120017 9 298 0.0 0.0 0.00 0.00 0.00 69 1011.8
20260507114515 9 298 0.0 0.0 0.00 0.00 0.00 69 1011.7
20260507113015 8 298 0.0 0.0 0.00 0.00 0.00 69 1011.7
20260507111512 9 298 0.0 0.0 0.00 0.00 0.00 70 1011.6
20260507110012 9 298 0.0 0.0 0.00 0.00 0.00 70 1011.7
20260507104512 9 298 0.0 0.0 0.00 0.00 0.00 69 1011.8
20260507103012 9 298 0.0 0.0 0.00 0.00 0.00 69 1011.2
20260507101514 9 298 0.0 0.0 0.00 0.00 0.00 69 1011.5
20260507100007 9 298 0.0 0.0 0.00 0.00 0.00 69 1011.1
20260507094504 9 286 0.0 3.2 0.00 0.00 0.00 68 1010.9
20260507093002 10 286 0.0 1.6 0.00 0.00 0.00 68 1011.0
20260507091600 10 284 0.0 1.6 0.00 0.00 0.00 67 1011.1
20260507084601 10 291 0.0 0.0 0.00 0.00 0.00 67 1011.0
20260507083056 10 291 0.0 0.0 0.00 0.00 0.00 66 1010.7
20260507081555 11 291 0.0 0.0 0.00 0.00 0.00 65 1010.8
20260507080111 11 287 0.0 6.4 0.00 0.00 0.00 64 1010.8
20260507074551 11 287 1.6 16.1 0.00 0.00 0.00 62 1010.9
20260507073052 11 136 0.0 4.8 0.00 0.00 0.00 63 1010.0
20260507071546 11 286 0.0 0.0 0.00 0.00 0.00 65 1010.1
20260507070045 12 286 0.0 4.8 0.00 0.00 0.00 64 1010.0
20260507064544 12 288 0.0 1.6 0.00 0.00 0.00 64 1010.2
20260507063041 12 288 0.0 3.2 0.00 0.00 0.00 65 1010.1
20260507061539 12 289 0.0 3.2 0.00 0.00 0.00 66 1010.1
20260507060042 12 289 0.0 4.8 0.00 0.00 0.00 67 1010.1
20260507054538 13 298 0.0 6.4 0.00 0.00 0.00 69 1010.3
20260507053033 13 337 0.0 0.0 0.00 0.00 0.00 69 1010.2
20260507051532 13 341 0.0 3.2 0.00 0.00 0.00 69 1010.1
20260507050029 14 217 0.0 3.2 0.00 0.00 0.00 72 1010.2
20260507044524 15 215 1.6 6.4 0.00 0.00 0.00 74 1010.1
20260507043025 15 217 0.0 4.8 0.00 0.00 0.00 74 1010.0
20260507041522 15 213 0.0 1.6 0.00 0.00 0.00 74 1010.1
20260507040019 15 223 0.0 3.2 0.00 0.00 0.00 74 1010.3
20260507034520 15 220 0.0 4.8 0.00 0.00 0.00 74 1010.6
20260507033021 15 251 0.0 4.8 0.00 0.00 0.00 73 1010.0
20260507031518 15 271 0.0 4.8 0.00 0.00 0.00 73 1009.5
20260507030019 15 259 0.0 9.7 0.00 0.00 0.00 73 1009.3
20260507024516 15 192 0.0 8.0 0.00 0.00 0.00 73 1009.5
20260507023014 15 204 0.0 4.8 0.00 0.00 0.00 73 1009.6
20260507021514 15 251 0.0 4.8 0.00 0.00 0.00 74 1009.7
20260507020013 14 241 1.6 11.3 0.00 0.00 0.00 74 1009.7
20260507014515 14 208 0.0 6.4 0.00 0.00 0.00 74 1009.9
20260507013020 14 223 0.0 4.8 0.00 0.00 0.00 74 1010.1
20260507011513 14 219 0.0 8.0 0.00 0.00 0.00 74 1010.1
20260507010013 13 198 0.0 4.8 0.00 0.00 0.00 74 1010.2